www.pogodaiklimat.ru

Погода и климат >> Архив погоды >> Южная Африка >> Дурбан


ПОГОДА в Дурбане

  • Прогноз погоды в Дурбане
  • Монитор погоды в Дурбане

АРХИВ ПОГОДЫ в Дурбане

Время (UTC), дата Ветер
(напр.,м/с)
 
Видим.   Явления Облачность Т
(С)
Тd
(С)
f
(%)
Тe
(С)
Тes
(С)
Комфортность P
(гПа)
Po
(гПа)
Тmin
(С)
Tmax
(С)
R
(мм)
R24
(мм)
S
(см)
12 12.07 Ю 8 н/о н/о +21.2 +15.3 69 +24 +24 комфорт 1023.8 1012.5 +14.5 +22.8
15 12.07 Ю 6 н/о н/о +18.9 +14.8 77 +20 +20 1025.6 1014.2 +18.9 +22.8
18 12.07 ЮЗ 3 н/о н/о +17.6 +14.7 83 +18 +18 1027.6 1016.1 +17.6 +22.8
21 12.07 З 2 н/о н/о +16.2 +13.5 84 +17 +17 1027.5 1016.0 +16.2 +22.8
00 13.07 ЮЗ 2 н/о н/о +14.9 +12.2 84 +15 +15 1026.4 1014.8 +14.6 +22.8
03 13.07 З 2 н/о н/о +14.3 +11.4 83 +14 +14 1026.2 1014.6 +14.3 +22.8
06 13.07 СЗ 3 н/о н/о +15.7 +11.9 78 +15 +15 1026.0 1014.5 +13.9 0.2
09 13.07 СВ 4 н/о н/о +21.8 +14.3 62 +25 +25 комфорт 1024.2 1012.9 +13.9 +22.0
12 13.07 СВ 5 н/о н/о +21.8 +15.9 69 +25 +25 комфорт 1020.8 1009.6 +13.9 +23.3
15 13.07 С 4 н/о н/о +19.9 +16.2 79 +22 +22 комфорт 1021.1 1009.8 +19.9 +23.3
18 13.07 С 3 н/о н/о +18.6 +16.2 86 +20 +20 1022.3 1010.9 +18.6 +23.3
21 13.07 С 4 н/о н/о +17.2 +15.5 90 +17 +17 1022.2 1010.8 +17.2 +23.3
00 14.07 СЗ 1 н/о н/о +14.4 +13.1 92 +15 +15 1021.7 1010.2 +14.1 +23.3
03 14.07 З 3 н/о н/о +13.5 +11.5 88 +12 +12 1022.3 1010.7 +13.3 +23.3
06 14.07 З 2 н/о н/о +14.8 +10.0 73 +15 +15 1023.1 1011.6 +13.3
09 14.07 В 2 н/о н/о +21.4 +14.4 64 +24 +24 комфорт 1022.8 1011.5 +13.3 +22.7
12 14.07 СВ 4 н/о н/о +21.6 +14.8 65 +25 +25 комфорт 1020.0 1008.8 +13.3 +22.7
15 14.07 С 3 н/о н/о +20.7 +16.3 76 +24 +24 комфорт 1019.6 1008.3 +20.7 +23.0
18 14.07 С 3 н/о н/о +19.2 +16.1 82 +21 +21 комфорт 1020.8 1009.5 +19.2 +23.0
21 14.07 СЗ 3 н/о н/о +15.9 +13.2 84 +16 +16 1020.5 1009.0 +15.9 +23.0
00 15.07 З 2 н/о н/о +14.4 +10.4 77 +14 +14 1020.4 1008.9 +14.2 +23.0
06 15.07 Ю 3 н/о н/о +16.7 +7.9 56 +17 +17 1021.6 1010.2 +14.1
09 15.07 Ю 4 н/о н/о +23.7 +15.3 59 +27 +27 жарко 1022.4 1011.2 +14.1 +23.7
12 15.07 Ю 3 н/о н/о +23.7 +17.0 66 +27 +27 жарко 1020.6 1009.4 +14.1 +24.4
15 15.07 Ю 2 н/о н/о +18.7 +16.8 89 +21 +21 комфорт 1021.4 1010.0 +18.7 +24.4
18 15.07 З 2 н/о н/о +16.8 +15.8 94 +17 +17 1023.0 1011.5 +16.8 +24.4
21 15.07 З 1 н/о н/о +14.9 +14.1 95 +15 +15 1023.5 1012.0 +14.9 +24.4
03 16.07 З 3 н/о н/о +14.5 +13.3 93 +14 +14 1023.9 1012.3 +14.2 +24.4
09 16.07 СЗ 1 н/о н/о +22.4 +15.6 65 +26 +26 жарко 1025.1 1013.8 +13.5 +23.8
12 16.07 В 3 н/о н/о +21.3 +16.1 72 +25 +25 комфорт 1022.3 1011.0 +13.5 +23.8
18 16.07 СЗ 2 н/о н/о +16.9 +15.1 89 +17 +17 1022.4 1011.0 +16.9 +23.8
21 16.07 СЗ 2 н/о н/о +16.4 +13.9 85 +16 +16 1022.1 1010.6 +16.4 +23.8
00 17.07 В 1 н/о н/о +15.1 +12.6 85 +16 +16 1020.4 1008.9 +14.7 +23.8
03 17.07 З 2 н/о н/о +14.1 +9.1 72 +14 +14 1020.2 1008.7 +13.7 +23.8
06 17.07 З 4 н/о н/о +17.1 +2.7 38 +17 +17 1020.9 1009.5 +13.3 0.2
09 17.07 СВ 2 н/о н/о +25.6 +10.4 38 +26 +26 жарко 1020.3 1009.2 +13.3 +28.0
12 17.07 СВ 3 н/о н/о +23.9 +12.0 47 +26 +26 жарко 1017.7 1006.6 +13.3 +28.0
15 17.07 С 3 н/о н/о +23.1 +8.9 40 +24 +24 комфорт 1017.7 1006.6 +23.1 +28.0
21 17.07 СЗ 4 н/о н/о +19.0 +2.5 33 +19 +19 1019.0 1007.7 +18.7 +28.0
00 18.07 СЗ 5 н/о н/о +18.7 +1.3 31 +19 +19 1018.0 1006.7 +18.7 +28.0
06 18.07 ЮЗ 3 н/о н/о +18.9 +1.5 31 +19 +19 1019.1 1007.8 +17.8
09 18.07 СВ 2 н/о н/о +24.9 +6.8 31 +25 +25 комфорт 1018.2 1007.1 +17.8 +27.1
12 18.07 С 2 н/о н/о +27.5 +7.6 28 +27 +27 жарко 1014.8 1003.9 +17.8 +27.5
15 18.07 С 3 н/о н/о +22.1 +10.1 46 +24 +24 комфорт 1014.1 1003.0 +22.1 +28.6
18 18.07 С 5 н/о н/о +20.9 +6.6 39 +22 +22 комфорт 1013.9 1002.7 +20.9 +28.6
21 18.07 З 3 н/о н/о +18.9 +1.5 31 +19 +19 1013.8 1002.5 +18.2 +28.6
00 19.07 З 2 н/о н/о +17.4 +0.6 32 +18 +18 1012.7 1001.4 +17.3 +28.6
03 19.07 З 3 н/о н/о +15.9 -0.2 33 +16 +16 1011.2 999.9 +15.9 +28.6
06 19.07 З 4 н/о н/о +19.4 -1.5 24 +19 +19 1011.1 999.9 +15.8
09 19.07 ЮВ 1 н/о н/о +29.5 +6.5 23 +28 +28 жарко 1010.1 999.3 +15.8 +31.0

 

Местоположение метеостанции Дурбан (Южная Африка): широта -29.96 долгота 30.95 высота над уровнем моря 14 м.

В архиве по умолчанию представлена погода в Дурбане за последнюю неделю. Архивные данные за месяц целиком и за предыдущие месяцы, начиная с января 2011 года, Вы можете получить, выбрав интересующий диапазон дат из раскрывающегося списка и нажав кнопку "Ввод!".


*Определитесь, кто Вы:
робот инопланетянин человек

Внимание! Время в таблицах - всемирное. Для получения местного времени необходимо прибавить поправку, которая равна 2 ч.

Смотрите также архив погоды в соседних городах и на ближайших метеорологических станциях:

Погода в Аэропорту Вирджиния (Южная Африка) (24 км)
Погода в Маунт Эджком (Южная Африка) (30 км)
Погода в Аэропорту Кинг Шака (Южная Африка) (43 км)
Погода в Пеннингтоне (Южная Африка) (54 км)
Погода в Питермарицбург аэропорту (Южная Африка) (63 км)
Погода в Питермарицбурге (Южная Африка) (65 км)
Погода в Цедаре (Южная Африка) (80 км)
Погода в Иксопо (Южная Африка) (87 км)
Погода в Мандини (Южная Африка) (100 км)
Погода в Грейтауне (Южная Африка) (104 км)

Пояснения к столбцам:

Ветер - указаны скорость ветра в м/с - средняя за 10 мин, порывы в срок и между сроками (в фигурных скобках) и направление, откуда дует ветер: С - северный, СВ - северо-восточный, В - восточный, ЮВ - юго-восточный, Ю - южный, ЮЗ - юго-западный, З - западный, СЗ - северо-западный.
Видимость - горизонтальная дальность видимости в метрах или километрах. При видимости от 1 до 10 км при отсутствии осадков обычно наблюдается дымка, при ухудшении видимости до 1 км и менее - туман. В сухую погоду видимость может ухудшаться дымом, пылью или мглою.
Явления - указаны атмосферные явления, наблюдавшиеся в срок или в последний час перед сроком; фигурными скобками обозначены явления, наблюдавшиеся между сроками (за 1-3 часа до срока); квадратными скобками обозначены град или гололедные отложения с указанием их диаметра в мм.
Облачность - указаны через наклонную черту общая и нижняя облачность в баллах и высота нижней границы облаков в метрах; квадратными скобками обозначены формы облаков: Ci - перистые, Cs - перисто-слоистые, Cc - перисто-кучевые, Ac - высококучевые, As - высокослоистые, Sc - слоисто-кучевые, Ns - слоисто-дождевые, Cu - кучевые, Cb - кучево-дождевые. Подробнее классификацию облаков см. в Атласе облаков (PDF).
T - Температура воздуха - температура, измеренная на высоте 2 м над землей.
Td - Температура точки росы - температура, при понижении до которой содержащийся в воздухе водяной пар достигнет насыщения.
f - Относительная влажность воздуха - влажноcть воздуха, измеренная на высоте 2 м над землей.
Te - Эффективная температура - температура, которую ощущает одетый по сезону человек в тени. Характеристика душности погоды. При расчете учитывается влияние влажности воздуха и скорости ветра на теплоощущения человека.
Tes - Эффективная температура на солнце - температура, которую ощущает человек, с поправкой на солнечный нагрев. Характеристика знойности погоды. Зависит от высоты солнца над горизонтом, облачности и скорости ветра. Ночью, в пасмурную погоду, а также при ветре 12 м/с и более поправка равна нулю.
P - Атмосферное давление - приведенное к уровню моря атмосферное давление.
Po - Атмосферное давление - измеренное на уровне метеостанции атмосферное давление.
Tmin - Минимальная температура - минимум температуры воздуха на высоте 2 м над землей.
Tmax - Максимальная температура - максимум температуры воздуха на высоте 2 м над землей.
R - Количество осадков - Количество выпавших осадков за период времени, мм. При наведении курсора мыши на число - период времени, за который выпало указанное количество осадков.
R24 - Количество осадков - Количество выпавших осадков за 24 часа, мм.
S - Снежный покров - Высота снежного покрова, см. При наведении курсора мыши на число - состояние снежного покрова и степень покрытия местности в баллах.